This demonstration page uses our WeatherBlox Daily Observations layout. Learn more.

Left ArrowRight Arrow

44.8408, -93.29828

Hourly Observations for July 18, 2017

Temp ( °F °C ) Dew Point ( °F °C ) Humidity (%) Winds ( mph kmh ) Pressure ( in mb ) Visibility ( mi km ) Precip ( " mm )
12:03 am 00:03 Cloudy with Nearby Thunderstorms 70 21.1 67 19.4 90 90 SSE 10 17 30.00 1016 5 8 0.03 0.76
12:23 am 00:23 Cloudy with Light Rain 69 20.6 67 19.4 93 93 ESE 12 19 29.97 1015 10 16 0.04 1.02
12:53 am 00:53 Cloudy 70 21.1 67 19.4 90 90 SSE 14 22 29.96 1015 10 16 0.06 1.52
1:00 am 01:00 Cloudy 70 21.1 67 19.4 90 90 SSE 15 24 29.94 1014 10 16 0.00 0.00
1:53 am 01:53 Cloudy with Light Rain 70 21.1 67 19.4 90 90 SE 6 9 29.94 1014 6 10 0.02 0.51
2:53 am 02:53 Cloudy with Light Rain 71 21.7 66 18.9 84 84 SE 6 9 29.90 1012 10 16 0.00 0.00
3:53 am 03:53 Cloudy 71 21.7 66 18.9 84 84 SSE 6 9 29.89 1012 10 16 0.00 0.00
5:53 am 05:53 Mostly Cloudy 74 23.3 68 20 82 82 N 3 6 29.85 1011 10 16 0.00 0.00
6:53 am 06:53 Mostly Cloudy 75 23.9 69 20.6 82 82 SSW 6 9 29.88 1012 10 16 0.00 0.00
7:53 am 07:53 Mostly Cloudy 77 25 70 21.1 79 79 WSW 7 11 29.90 1013 10 16 0.00 0.00
8:53 am 08:53 Mostly Cloudy 77 25 70 21.1 79 79 W 12 19 29.93 1013 10 16 0.00 0.00
9:53 am 09:53 Cloudy 76 24.4 70 21.1 82 82 WSW 3 6 29.94 1014 10 16 0.00 0.00
10:53 am 10:53 Mostly Cloudy 78 25.6 69 20.6 74 74 SSW 5 7 29.96 1014 10 16 0.00 0.00
11:53 am 11:53 Mostly Cloudy 82 27.8 68 20 63 63 W 7 11 29.96 1015 10 16 0.00 0.00
12:53 pm 12:53 Cloudy with Light Rain 79 26.1 69 20.6 72 72 WNW 12 19 29.98 1015 10 16 0.00 0.00
1:53 pm 13:53 Cloudy 79 26.1 70 21.1 74 74 WSW 6 9 29.97 1015 10 16 0.00 0.00
2:53 pm 14:53 Mostly Cloudy 77 25 72 22.2 85 85 N 9 15 29.96 1015 10 16 0.06 1.52
3:53 pm 15:53 Mostly Cloudy 80 26.7 70 21.1 71 71 NNE 6 9 29.95 1014 10 16 0.00 0.00
4:53 pm 16:53 Cloudy 79 26.1 70 21.1 74 74 NNE 12 19 29.97 1015 10 16 0.00 0.00
5:53 pm 17:53 Mostly Cloudy 79 26.1 69 20.6 72 72 N 9 15 29.99 1016 10 16 0.00 0.00
6:53 pm 18:53 Mostly Cloudy 79 26.1 68 20 69 69 NNE 9 15 30.00 1016 10 16 0.00 0.00
7:53 pm 19:53 Mostly Sunny 78 25.6 61 16.1 56 56 NNE 12 19 30.01 1016 10 16 0.00 0.00
8:53 pm 20:53 Mostly Sunny 74 23.3 59 15 60 60 N 5 7 30.04 1017 10 16 0.00 0.00
9:53 pm 21:53 Clear 74 23.3 61 16.1 64 64 NE 3 6 30.06 1018 10 16 0.00 0.00
10:53 pm 22:53 Clear 71 21.7 62 16.7 73 73 NNE 3 6 30.07 1018 10 16 0.00 0.00
11:53 pm 23:53 Clear 68 20 63 17.2 84 84 Calm 30.08 1019 10 16 0.00 0.00

Powered by AerisWeather